Regional Weather Roundup
Issued by NWS

Home | Current Version | Previous Version | Graphics & Text | Print | Product List | Glossary On
Versions: 1 2 3 4 5 6 7 8 9 10 11 12 13 14 15 16 17 18 19 20 21 22 23 24 25 26 27 28 29 30 31 32 33 34 35 36 37 38 39 40 41 42 43 44 45 46 47 48 49 50
000
ASUS44 KMEG 211810
RWRTN
TENNESSEE HOURLY STATE WEATHER ROUNDUP
NATIONAL WEATHER SERVICE MEMPHIS TN
100 PM CDT THU AUG 21 2014

TNZ002-004-019-021-049-052-054-088>092-211900-
WEST TENNESSEE

CITY           SKY/WX    TMP DP  RH WIND       PRES   REMARKS
MEMPHIS INTL   PTSUNNY   91  73  55 SW8       30.11S HX  99
NWS MEMPHIS      N/A     90 N/A N/A MISG        N/A
JACKSON        SUNNY     90  73  57 SW8       30.11F HX  98
DYERSBURG      SUNNY     90  70  51 SW10      30.10S HX  95
UNION CITY     SUNNY     90  75  62 SW9       30.08F HX 100
PARIS          SUNNY     90  72  55 SW10      30.10F HX  96
HUNTINGDON     SUNNY     89  72  57 SW9       30.10F HX  96
LEXINGTON      SUNNY     91  72  52 SW9       30.11F HX  98
SAVANNAH       MOSUNNY   90  75  62 W9        30.13F HX 100
$$

TNZ008-025-027-028-033-062-065-066-211900-
NORTH MIDDLE TENNESSEE

CITY           SKY/WX    TMP DP  RH WIND       PRES   REMARKS
NASHVILLE      MOSUNNY   92  72  51 SW7       30.13F HX  99
PORTLAND       PTSUNNY   90  73  58 W8        30.12F HX  98
CLARKSVILLE    MOSUNNY   91  71  51 SW8       30.09F HX  97
SMYRNA         MOSUNNY   91  71  51 W7        30.13F HX  97
MURFREESBORO   MOSUNNY   90  69  49 NW9       30.13F HX  94
COOKEVILLE     PTSUNNY   90  75  62 NW8       30.17F HX 100
GALLATIN       PTSUNNY   90  75  61 VRB3      30.13F HX 100
CROSSVILLE     MOSUNNY   84  68  58 W9        30.23S
$$

TNZ061-075-076-078-094-096-097-211900-
SOUTH MIDDLE TENNESSEE

CITY           SKY/WX    TMP DP  RH WIND       PRES   REMARKS
LEWISBURG      MOSUNNY   91  71  51 W5        30.15S HX  97
FAYETTEVILLE   MOSUNNY   88  70  55 NW6       30.16F HX  92
TULLAHOMA      MOSUNNY   90  70  51 W9        30.18S HX  95
WINCHESTER     SUNNY     88  73  62 VRB6      30.17S HX  96
MCMINNVILLE    SUNNY     88  73  62 W6        30.17S HX  96
COLUMBIA       SUNNY     91  72  52 W8        30.13S HX  98
SHELBYVILLE    MOSUNNY   91  73  55 NW9       30.16S HX 100
$$

TNZ017-018-042-046-047-211900-
NORTHEAST TENNESSEE

CITY           SKY/WX    TMP DP  RH WIND       PRES   REMARKS
TRI CITIES     MOSUNNY   81  69  67 VRB5      30.20F
ELIZABETHTON   PTCLDY    81  68  65 SW6       30.20F
$$

TNZ012-013-036-069-073-074-211900-
CENTRAL EAST TENNESSEE

CITY           SKY/WX    TMP DP  RH WIND       PRES   REMARKS
KNOXVILLE      PTSUNNY   84  72  67 SW7       30.16F
OAK RIDGE      MOSUNNY   84  72  67 CALM      30.18F
GATLINBURG     CLEAR     84  70  61 W5        30.16F
MORRISTOWN     CLEAR     84  72  65 W6        30.19F
$$

TNZ083-085-099-211900-
SOUTHEAST TENNESSEE

CITY           SKY/WX    TMP DP  RH WIND       PRES   REMARKS
CHATTANOOGA    MOSUNNY   90  70  51 VRB3      30.15F HX  95
$$

SKY/WX REPORTED AS FAIR MEANS FEW OR NO CLOUDS BELOW
12 THOUSAND FEET.




USA.gov is the U.S. government's official web portal to all federal, state and local government web resources and services.